Regional Weather Roundup
Issued by NWS

Home | Current Version | Previous Version | Graphics & Text | Print | Product List | Glossary On
Versions: 1 2 3 4 5 6 7 8 9 10 11 12 13 14 15 16 17 18 19 20 21 22 23 24 25 26 27 28 29 30 31 32 33 34 35 36 37 38 39 40 41 42 43 44 45 46 47 48 49 50
000
ASUS43 KTOP 171708
RWRKS

WEATHER ROUNDUP FOR KANSAS
NATIONAL WEATHER SERVICE GOODLAND KS
1100 AM CST TUE JAN 17 2017

NOTE:  "FAIR" INDICATES FEW OR NO CLOUDS BELOW 12,000 FEET WITH NO
SIGNIFICANT WEATHER AND/OR OBSTRUCTIONS TO VISIBILITY.

KSZ001>006-013>018-027>032-041>047-171800-
NORTHWEST KANSAS

CITY           SKY/WX    TMP DP  RH WIND       PRES   REMARKS
GOODLAND       SUNNY     35  26  69 CALM      30.10S
HAYS           CLOUDY    35  28  75 NW9       30.14S
HILL CITY      SUNNY     37  27  67 NW8       30.14R
RUSSELL        CLOUDY    33  28  81 NW8       30.12F
$$

KSZ061>065-074>080-084>089-171800-
SOUTHWEST KANSAS

CITY           SKY/WX    TMP DP  RH WIND       PRES   REMARKS
DODGE CITY     SUNNY     39  32  76 NW7       30.16R
ELKHART          N/A     38  31  76 W5          N/A
GARDEN CITY    SUNNY     37  31  78 NW8       30.15R
GREAT BEND     CLOUDY    37  30  75 NW9       30.16R
LIBERAL        SUNNY     45  34  65 N3        30.18R
PRATT          SUNNY     38  27  66 NW8       30.16S
$$

KSZ066>073-081>083-090>101-171800-
SOUTHEAST KANSAS

CITY           SKY/WX    TMP DP  RH WIND       PRES   REMARKS
CHANUTE        CLOUDY    38  34  85 W9        30.17R
COFFEYVILLE    CLOUDY    39  34  82 W6        30.19R
HUTCHINSON     MOSUNNY   41  30  65 N8        30.16R
MEDICINE LODGE   N/A     43  28  55 NW7       30.17S
NEWTON         SUNNY     39  32  76 NW7       30.16R
PARSONS        CLOUDY    39  34  82 NW9       30.18R
WICHITA INTL   MOSUNNY   41  31  67 NW7       30.17R
WICHITA JABRA  SUNNY     40  32  73 W7        30.16R
WINFIELD       SUNNY     42  33  70 NW8       30.18R
$$

KSZ007>012-019>026-033>040-048>060-102>105-171800-
NORTHEAST KANSAS

CITY           SKY/WX    TMP DP  RH WIND       PRES   REMARKS
CONCORDIA      SUNNY     32  26  78 NW7       30.13R
EMPORIA        CLOUDY    37  33  85 NW8       30.14R
LAWRENCE       CLOUDY    36  34  92 W9        30.13S
MANHATTAN      CLOUDY    37  30  75 W7        30.14S
MARYSVILLE     SUNNY     32  28  86 NW8       30.12S
OLATHE IND     CLOUDY    35  34  96 NW12      30.11S FOG     WCI  27
OLATHE EXE     CLOUDY    34  34 100 NW8       30.10S
SALINA         MOSUNNY   36  28  73 N6        30.17R
TOPEKA BILLARD CLOUDY    38  32  79 W6        30.12S
TOPEKA FORBES  CLOUDY    38  33  82 NW9       30.12R
$$




USA.gov is the U.S. government's official web portal to all federal, state and local government web resources and services.